Weather Roundup
Issued by NWS Chicago, IL

Home | Current Version | Previous Version | Graphics & Text | Print | Product List | Glossary On
Versions: 1 2 3 4 5 6 7 8 9 10 11 12 13 14 15 16 17 18 19 20 21 22 23 24 25 26 27 28 29 30 31 32 33 34 35 36 37 38 39 40 41 42 43 44 45 46 47 48 49 50
912
NZUS59 KLOT 132203
HRRLOT

CHICAGO AREA WEATHER ROUNDUP
NATIONAL WEATHER SERVICE CHICAGO/ROMEOVILLE IL
400 PM CST SAT FEB 13 2016

NOTE: "FAIR" INDICATES FEW OR NO CLOUDS BELOW 12,000 FEET WITH NO
SIGNIFICANT WEATHER AND/OR OBSTRUCTIONS TO VISIBILITY.

* THESE STATIONS ARE NOT UNDER NWS QUALITY CONTROL. THEY ALSO MAY NOT
  REPORT WEATHER SUCH AS PRECIPITATION OR FOG.

ILZ005-006-012>014-019>023-132300-
NORTHEAST ILLINOIS

CITY           SKY/WX    TMP DP  RH WIND       PRES   REMARKS
OHARE          MOSUNNY   16  -5  39 NW8       30.52F WCI   5
MIDWAY         MOSUNNY   19  -8  30 VRB6      30.53F WCI  11
AURORA         SUNNY     17  -4  39 NW9       30.52F WCI   6
WAUKEGAN       SUNNY     14  -6  40 VRB6      30.51S WCI   5
DUPAGE AIRPORT SUNNY     16  -5  39 W7        30.51F WCI   6
WHEELING       SUNNY     16  -5  39 N6        30.53F WCI   7
$$

WIZ051-052-058>065-066-070>072-132300-
SOUTHEAST WISCONSIN

CITY           SKY/WX    TMP DP  RH WIND       PRES   REMARKS
MILWAUKEE      MOSUNNY   12  -8  40 VRB7      30.52S WCI   1
KENOSHA*       SUNNY     14  -5  42 NW9       30.51S WCI   2
RACINE*        SUNNY     13  -8  39 NW9       30.53S WCI   1
BURLINGTON     SUNNY     11  -8  41 W5        30.51S WCI   3
WAUKESHA       SUNNY      9  -8  47 NW12      30.51S WCI  -6
$$

INZ001>003-010>013-019-020-132300-
NORTHWEST INDIANA

CITY           SKY/WX    TMP DP  RH WIND       PRES   REMARKS
GARY*          MOSUNNY   19 -13  23 CALM      30.54F
MICHIGAN CITY* NOT AVBL
RENSSELAER*    NOT AVBL
VALPARAISO     SUNNY     16  -3  43 N6        30.52S WCI   7
$$

LMZ740>746-132300-
SOUTHERN LAKE MICHIGAN

STATION/POSITION TIME  SKY/WX   TEMP WIND        PRES    VSBY
                                AIR  DIR/SP/G
                 (UTC)          (F)  (DEG/KT/KT) (MB)    (MI)
HARRISON CRIB    2100            16  330/  7/  9   N/A
BURNHAM HARBOR   2200            18  270/  6/ 10   N/A
CALUMET HARBOR   2100            17  270/  5/  9 1033.1F
BURNS HARBOR     2100            14  330/  6/  9 1034.5F
MICHIGAN CITY    2100            14  300/  8/ 14   N/A
$$

ABBREVIATIONS USED IN REMARKS
   TC - TEMPERATURE IN CELSIUS
  WCI - WIND CHILL INDEX
   HX - HEAT INDEX
  VSB - VISIBILITY
$$




USA.gov is the U.S. government's official web portal to all federal, state and local government web resources and services.